Deer Park, WA

7:11 AM PST on December 15, 2017 (GMT -0800)
Deer Park

Weather History for KDEW - November, 2011

Change the Weather History Date:

Friday, November 11, 2011

  Actual Average Record
Temperature  
Mean Temperature 31 °F 36 °F  
Max Temperature 45 °F 44 °F 59 °F (2016)
Min Temperature 17 °F 27 °F 0 °F (2000)
Degree Days  
Heating Degree Days 34 30  
Month to date heating degree days 349 308  
Since 1 July heating degree days 1303 1376  
Cooling Degree Days 0 0  
Month to date cooling degree days 0 0  
Year to date cooling degree days 96 187  
Moisture  
Dew Point 26 °F    
Average Humidity 76    
Maximum Humidity 92    
Minimum Humidity 59    
Precipitation  
Precipitation 0.12 in 0.10 in 0.39 in (2008)
Month to date precipitation 0.12 1.12  
Year to date precipitation 15.99 17.18  
Sea Level Pressure  
Sea Level Pressure 29.66 in    
Wind  
Wind Speed 5 mph (SSE)    
Max Wind Speed 26 mph    
Max Gust Speed 36 mph    
Visibility 6 miles    
Events Rain , Snow    
T = Trace of Precipitation, MM = Missing Value Source: NWS Daily Summary

Daily Weather History Graph

Daily Weather History Graph

Search for Another Location

Airport or City:

Trip Planner

Search our weather history database for the weather conditions in past years. The results will help you decide how hot, cold, wet, or windy it might be!

Date:

Astronomy

Nov. 11, 2011 Rise Set
Actual Time 6:49 AM PST 4:17 PM PST
Civil Twilight 6:16 AM PST 4:50 PM PST
Nautical Twilight 5:38 AM PST 5:27 PM PST
Astronomical Twilight 5:02 AM PST 6:04 PM PST
Moon 4:41 PM PST (11/11) 7:49 AM PST (11/11)
Length of Visible Light 10h 34m
Length of Day
9h 27m
Full, 99% of the Moon is Illuminated
Nov 11
Full
Nov 18
Last Quarter
Nov 24
New
Dec 2
First Quarter
Dec 10
Full

Hourly Weather History & Observations

Time (PST) Temp. Windchill Dew Point Humidity Pressure Visibility Wind Dir Wind Speed Gust Speed Precip Events Conditions
12:53 AM 19.0 °F 13.9 °F 17.1 °F 92% 29.98 in 4.0 mi North 3.5 mph - N/A   Clear
1:04 AM 19.4 °F - 17.6 °F 93% 29.92 in 2.0 mi Calm Calm - N/A   Clear
1:27 AM 21.2 °F - 17.6 °F 86% 29.91 in 3.0 mi Calm Calm - N/A   Clear
1:47 AM 21.2 °F - 19.4 °F 93% 29.91 in 1.8 mi Calm Calm - N/A   Clear
2:21 AM 19.4 °F - 17.6 °F 93% 29.90 in 2.5 mi Calm Calm - N/A   Clear
2:39 AM 19.4 °F - 17.6 °F 93% 29.89 in 0.8 mi Calm Calm - N/A   Clear
2:50 AM 19.4 °F - 17.6 °F 93% 29.88 in 0.8 mi Calm Calm - N/A   Mist
3:00 AM 17.6 °F - 15.8 °F 93% 29.88 in 1.0 mi Calm Calm - N/A   Clear
3:21 AM 19.4 °F - 15.8 °F 86% 29.86 in 3.0 mi Calm Calm - N/A   Clear
3:32 AM 21.2 °F - 19.4 °F 93% 29.86 in 1.8 mi Calm Calm - N/A   Clear
3:42 AM 19.4 °F 12.8 °F 17.6 °F 93% 29.86 in 3.0 mi NW 4.6 mph - N/A   Clear
4:16 AM 19.4 °F - 17.6 °F 93% 29.85 in 5.0 mi Calm Calm - N/A   Clear
4:43 AM 19.4 °F - 15.8 °F 86% 29.84 in 1.8 mi Calm Calm - N/A   Clear
4:51 AM 17.6 °F 12.3 °F 15.8 °F 93% 29.84 in 3.0 mi NNW 3.5 mph - N/A   Clear
4:53 AM 18.0 °F - 15.1 °F 88% 29.91 in 3.0 mi Calm Calm - N/A   Clear
5:28 AM 17.6 °F - 15.8 °F 93% 29.82 in 1.8 mi Calm Calm - N/A   Clear
5:49 AM 21.2 °F 16.4 °F 17.6 °F 86% 29.81 in 3.0 mi NE 3.5 mph - N/A   Clear
5:53 AM 21.9 °F 17.2 °F 19.0 °F 89% 29.88 in 5.0 mi ENE 3.5 mph - N/A   Clear
6:31 AM 21.2 °F - 19.4 °F 93% 29.79 in 1.8 mi Calm Calm - N/A   Clear
6:38 AM 21.2 °F - 19.4 °F 93% 29.79 in 3.0 mi Calm Calm - N/A   Clear
8:02 AM 24.8 °F - 23.0 °F 93% 29.74 in 1.5 mi Calm Calm - N/A   Clear
8:12 AM 26.6 °F - 23.0 °F 86% 29.74 in 3.0 mi Calm Calm - N/A   Clear
8:53 AM 30.0 °F 26.5 °F 27.0 °F 88% 29.78 in 3.0 mi NNW 3.5 mph - N/A   Clear
9:53 AM 36.0 °F 33.3 °F 28.9 °F 76% 29.74 in 10.0 mi NNW 3.5 mph - N/A   Partly Cloudy
10:53 AM 39.0 °F 35.7 °F 28.0 °F 65% 29.70 in 10.0 mi NNW 4.6 mph - N/A   Overcast
11:53 AM 39.9 °F 37.8 °F 27.0 °F 60% 29.66 in 10.0 mi NE 3.5 mph - N/A   Overcast
12:53 PM 39.0 °F 34.8 °F 28.0 °F 65% 29.62 in 10.0 mi NE 5.8 mph - N/A   Overcast
1:53 PM 39.0 °F - 28.9 °F 67% 29.60 in 9.0 mi Calm Calm - N/A   Overcast
2:53 PM 37.9 °F - 28.9 °F 70% 29.57 in 10.0 mi Calm Calm - N/A   Overcast
3:53 PM 39.0 °F - 30.0 °F 70% 29.55 in 8.0 mi Calm Calm - 0.00 in Rain Light Rain
4:53 PM 42.1 °F 35.7 °F 30.0 °F 62% 29.50 in 10.0 mi South 11.5 mph - 0.00 in   Overcast
5:53 PM 44.1 °F 35.0 °F 34.0 °F 68% 29.46 in 8.0 mi SSW 24.2 mph 35.7 mph 0.01 in   Overcast
6:53 PM 39.9 °F 32.9 °F 36.0 °F 86% 29.46 in 4.0 mi SSW 11.5 mph - 0.05 in   Overcast
7:42 PM 39.2 °F 33.0 °F 37.4 °F 93% 29.37 in 9.0 mi SSE 9.2 mph - 0.06 in   Overcast
7:53 PM 39.9 °F 35.1 °F 37.0 °F 89% 29.41 in 10.0 mi SE 6.9 mph - 0.06 in   Overcast
8:07 PM 39.2 °F 35.0 °F 37.4 °F 93% 29.35 in 10.0 mi ESE 5.8 mph - N/A   Overcast
8:38 PM 39.2 °F 32.5 °F 37.4 °F 93% 29.35 in 10.0 mi SSE 10.4 mph - N/A   Overcast
8:46 PM 39.2 °F 32.0 °F 37.4 °F 93% 29.35 in 10.0 mi SSE 11.5 mph - N/A   Overcast
8:53 PM 39.9 °F 33.4 °F 37.0 °F 89% 29.39 in 10.0 mi SSE 10.4 mph - N/A   Overcast
9:53 PM 39.0 °F 34.0 °F 37.0 °F 93% 29.38 in 10.0 mi SSE 6.9 mph - N/A   Mostly Cloudy
10:00 PM 37.4 °F 32.1 °F 35.6 °F 93% 29.34 in 10.0 mi SSE 6.9 mph - N/A   Mostly Cloudy
10:53 PM 37.9 °F 33.5 °F 34.0 °F 86% 29.37 in 10.0 mi WSW 5.8 mph - N/A   Overcast
11:32 PM 37.4 °F 30.3 °F 32.0 °F 81% 29.35 in 9.0 mi South 10.4 mph - 0.00 in Snow Light Snow
11:40 PM 37.4 °F 28.9 °F 32.0 °F 81% 29.36 in 9.0 mi SSW 13.8 mph - 0.00 in Snow Light Snow
11:53 PM 37.0 °F 31.0 °F 32.0 °F 82% 29.39 in 9.0 mi SSW 8.1 mph - 0.00 in Snow Light Snow